[[{"header":{"parameterUnit":"m.s-1","parameterCategory":1,"la1":30.2991,"la2":30.254,"lo1":-89.0895,"lo2":-89.0444,"dy":0.0017,"dx":0.0017,"nx":28,"ny":28,"refTime":"2024-02-17T03:00:00:Z","depth":0,"parameterNumber":2,"parameterNumberName":"U-component_of_WINDS"},"data":[0,0,0,0,0,0,0,0,0,0,0,0,0,0,0,0,0,0,0,0,0,0,0,0,0,0,0,0,0,0,0,0,0,0,0,0,0,0,0,0,0,0,0,0,0,0,0,0,0,0,0,0,0,0,0,0,0,0,-1.026,-1.0261,0,-1.0312,-1.0312,-1.0313,-1.0309,-1.0309,-1.0308,-1.0307,-1.036,-1.0362,-1.0364,0,0,0,0,0,0,0,0,0,0,0,0,0,-1.016,-1.0162,-1.026,-1.0261,-1.0262,-1.0312,-1.0312,-1.0313,-1.0309,-1.0308,-1.0308,-1.0307,-1.0359,-1.0362,-1.0364,0,0,0,0,0,0,0,0,0,0,0,0,0,-1.0207,-1.0163,-1.026,-1.0266,-1.0267,-1.0312,-1.0312,-1.0313,-1.031,-1.0308,-1.0307,-1.0306,-1.0358,-1.0362,-1.0365,-1.0407,0,0,-1.0374,-1.0376,0,0,0,0,0,0,0,0,-1.0204,-1.0211,-1.0264,-1.0266,-1.0267,-1.0303,-1.0297,-1.0345,-1.031,-1.0293,-1.0307,-1.0306,-1.0342,-1.0346,-1.0359,-1.041,-1.0412,-1.0375,-1.0377,-1.0378,-1.0379,0,0,0,0,0,0,0,-1.0201,-1.0208,-1.0281,-1.0265,-1.0267,-1.0266,-1.0272,-1.0306,-1.0324,-1.0295,-1.0295,-1.0301,-1.0342,-1.0356,-1.036,-1.0413,-1.0375,-1.0377,-1.0379,-1.0381,-1.0503,-1.0505,0,0,0,0,0,0,-1.0197,-1.0206,-1.0279,-1.0282,-1.0232,-1.0269,-1.0275,-1.0293,-1.0323,-1.0327,-1.0302,-1.03,-1.0351,-1.0356,-1.0362,-1.0415,-1.0378,-1.0381,-1.0383,-1.0502,-1.0504,-1.0505,0,0,0,0,0,0,-1.0194,-1.0203,-1.0277,-1.0244,-1.0253,-1.0272,-1.0292,-1.0294,-1.0307,-1.0328,-1.0332,-1.0312,-1.035,-1.0357,-1.0396,-1.0416,-1.0382,-1.0385,-1.05,-1.0503,-1.0504,-1.052,0,0,0,0,0,0,-1.0192,-1.0202,-1.0218,-1.0244,-1.0255,-1.0311,-1.0293,-1.0296,-1.0313,-1.0312,-1.0339,-1.0342,-1.035,-1.0392,-1.04,-1.042,-1.0388,-1.0499,-1.0501,-1.0504,-1.0518,-1.0523,-1.0526,0,0,0,0,0,-1.0188,-1.0221,-1.0219,-1.0228,-1.0276,-1.0312,-1.0318,-1.0326,-1.0314,-1.0331,-1.0345,-1.0341,-1.0413,-1.0396,-1.0405,-1.0426,-1.0498,-1.0501,-1.0504,-1.0516,-1.0522,-1.0526,0,0,0,0,0,0,-1.0196,-1.0224,-1.0223,-1.0265,-1.0286,-1.0311,-1.0332,-1.0331,-1.0356,-1.0354,-1.0363,-1.0369,-1.0409,-1.0421,-1.0402,-1.047,-1.0454,-1.0459,-1.046,-1.0466,-1.047,-1.0466,-1.039,0,0,0,0,0,-1.0203,-1.0229,-1.0252,-1.0287,-1.0298,-1.0313,-1.0329,-1.0334,-1.0356,-1.0365,-1.0381,-1.0404,-1.0431,-1.0449,-1.0476,-1.052,-1.0526,-1.054,-1.0544,-1.0547,-1.0551,-1.0577,-1.0583,-1.0515,-1.0515,-1.0515,0,0,-1.0217,-1.0235,-1.0252,-1.0289,-1.0306,-1.0334,-1.0321,-1.0351,-1.0372,-1.0369,-1.0408,-1.0421,-1.0446,-1.0488,-1.0508,-1.05,-1.0572,-1.0551,-1.0553,-1.0556,-1.0581,-1.0587,-1.0593,-1.0517,-1.0517,-1.0516,0,0,-1.0257,-1.0273,-1.0304,-1.0322,-1.0348,-1.0358,-1.0366,-1.0391,-1.04,-1.0438,-1.0438,-1.0463,-1.051,-1.0529,-1.0544,-1.0593,-1.0591,-1.0601,-1.0623,-1.0648,-1.0654,-1.0658,-1.0677,-1.0683,-1.0605,-1.0605,-1.0605,0,-1.0271,-1.0313,-1.0321,-1.0351,-1.0368,-1.0368,-1.04,-1.0417,-1.045,-1.0462,-1.0453,-1.0513,-1.053,-1.0578,-1.059,-1.0602,-1.0612,-1.0598,-1.0652,-1.0657,-1.0662,-1.0679,-1.0686,-1.0607,-1.0606,-1.0606,-1.0606,0,-1.033,-1.0359,-1.0381,-1.0414,-1.0433,-1.0464,-1.0478,-1.0497,-1.05,-1.0511,-1.0551,-1.0572,-1.0603,-1.0614,-1.0617,-1.0663,-1.0657,-1.065,-1.0634,-1.0669,-1.0686,-1.0693,-1.0608,-1.0608,-1.0607,-1.0607,0,0,-1.0376,-1.0413,-1.0421,-1.0436,-1.0465,-1.0488,-1.052,-1.0551,-1.0567,-1.0591,-1.0618,-1.0659,-1.0653,-1.0671,-1.0676,-1.0698,-1.0736,-1.0688,-1.0689,-1.0697,-1.0789,-1.0794,-1.0802,-1.0735,-1.0737,-1.0738,-1.0787,0,-1.0419,-1.0475,-1.0484,-1.0533,-1.0561,-1.0562,-1.0589,-1.0611,-1.0623,-1.0648,-1.0661,-1.069,-1.068,-1.0691,-1.0712,-1.0727,-1.0755,-1.0723,-1.0762,-1.0763,-1.0756,-1.081,-1.0816,-1.0861,-1.0793,-1.0794,-1.0795,0,-1.0477,-1.0503,-1.0555,-1.0582,-1.0594,-1.0618,-1.0648,-1.0672,-1.0697,-1.0704,-1.0724,-1.0727,-1.0761,-1.0743,-1.0791,-1.0769,-1.0786,-1.0795,-1.0797,-1.0801,-1.0781,-1.0817,-1.0876,-1.0883,-1.0805,-1.0804,-1.0804,0,-1.0507,-1.0554,-1.0592,-1.0605,-1.0636,-1.0654,-1.0668,-1.0691,-1.071,-1.0736,-1.0748,-1.0777,-1.0794,-1.0817,-1.0828,-1.0814,-1.0875,-1.0858,-1.0883,-1.0883,-1.0896,-1.0895,-1.0959,-1.0905,-1.0905,-1.0905,-1.0905,0,-1.0555,-1.0587,-1.0606,-1.0629,-1.0665,-1.0675,-1.0711,-1.0725,-1.0746,-1.0773,-1.0775,-1.08,-1.0813,-1.084,-1.0849,-1.0888,-1.0895,-1.0902,-1.0904,-1.0902,-1.0902,-1.0913,-1.0911,-1.0907,-1.0907,-1.0906,-1.0906,0,-1.0594,-1.0608,-1.0649,-1.0676,-1.0683,-1.0709,-1.0732,-1.0756,-1.0767,-1.0801,-1.081,-1.0828,-1.0861,-1.0874,-1.0914,-1.092,-1.0964,-1.0964,-1.0956,-1.0957,-1.0981,-1.0979,-1.1056,-1.1067,-1.1005,-1.1005,-1.1006,0,-1.0624,-1.0649,-1.0679,-1.0697,-1.0711,-1.074,-1.0759,-1.077,-1.079,-1.0821,-1.084,-1.0872,-1.0899,-1.0951,-1.0968,-1.0999,-1.0999,-1.1024,-1.1004,-1.1002,-1.1001,-1.0999,-1.1003,-1.1028,-1.1029,-1.1029,-1.1029,0,-1.0677,-1.0682,-1.0709,-1.0739,-1.0762,-1.0786,-1.0809,-1.0824,-1.0838,-1.0861,-1.0894,-1.0914,-1.0955,-1.0987,-1.1019,-1.1034,-1.1035,-1.1036,-1.1043,-1.1042,-1.1037,-1.1041,-1.0967,-1.1034,-1.1033,-1.1033,-1.1033,-1.1033,-1.0713,-1.0735,-1.076,-1.0791,-1.0809,-1.0832,-1.0855,-1.087,-1.0898,-1.0932,-1.0937,-1.0972,-1.0998,-1.104,-1.1057,-1.1085,-1.1079,-1.109,-1.1093,-1.1095,-1.1097,-1.1032,-1.1091,-1.1091,-1.1091,-1.1091,-1.1091,0,-1.0766,-1.0782,-1.081,-1.0843,-1.0867,-1.0865,-1.0891,-1.0912,-1.0943,-1.0967,-1.0993,-1.1032,-1.1063,-1.1084,-1.1116,-1.1135,-1.1136,-1.1143,-1.1142,-1.1146,-1.1101,-1.1091,-1.1142,-1.1142,-1.1142,-1.1142,-1.1142,-1.1142,-1.0797,-1.0835,-1.0844,-1.0892,-1.0908,-1.0943,-1.0959,-1.0979,-1.0998,-1.1041,-1.1068,-1.1081,-1.1103,-1.1138,-1.1167,-1.1172,-1.1184,-1.1192,-1.1197,-1.1154,-1.1149,-1.1144,-1.1135,-1.1194,-1.1194,-1.124,-1.1241,-1.1241]},{"header":{"parameterUnit":"m.s-1","parameterCategory":1,"la1":30.2991,"la2":30.254,"lo1":-89.0895,"lo2":-89.0444,"dy":0.0017,"dx":0.0017,"nx":28,"ny":28,"refTime":"2024-02-17T03:00:00:Z","depth":0,"parameterNumber":3,"parameterNumberName":"V-component_of_WINDS"},"data":[0,0,0,0,0,0,0,0,0,0,0,0,0,0,0,0,0,0,0,0,0,0,0,0,0,0,0,0,0,0,0,0,0,0,0,0,0,0,0,0,0,0,0,0,0,0,0,0,0,0,0,0,0,0,0,0,0,0,2.3627,2.3626,0,2.3579,2.3579,2.3578,2.3569,2.3569,2.3569,2.357,2.3514,2.3512,2.3511,0,0,0,0,0,0,0,0,0,0,0,0,0,2.3704,2.3703,2.3627,2.3626,2.3626,2.3579,2.3579,2.3578,2.3569,2.3569,2.357,2.357,2.3515,2.3513,2.351,0,0,0,0,0,0,0,0,0,0,0,0,0,2.3665,2.3702,2.3627,2.3616,2.3614,2.3579,2.3579,2.3578,2.3568,2.3569,2.357,2.357,2.3516,2.3513,2.351,2.3481,0,0,2.3502,2.35,0,0,0,0,0,0,0,0,2.3667,2.3662,2.3618,2.3616,2.3615,2.3581,2.3585,2.3545,2.3568,2.3586,2.357,2.357,2.3535,2.3531,2.3521,2.3479,2.3476,2.3501,2.35,2.3499,2.3498,0,0,0,0,0,0,0,2.367,2.3664,2.3608,2.3617,2.3615,2.3611,2.3606,2.3578,2.3557,2.3584,2.3583,2.3578,2.3534,2.3523,2.3519,2.3475,2.3501,2.3499,2.3497,2.3496,2.3407,2.3406,0,0,0,0,0,0,2.3675,2.3666,2.3609,2.3606,2.3643,2.3609,2.3604,2.3591,2.3558,2.3554,2.3578,2.3578,2.3528,2.3522,2.3517,2.3481,2.3499,2.3496,2.3494,2.3407,2.3406,2.3406,0,0,0,0,0,0,2.3677,2.367,2.3611,2.3636,2.3628,2.3607,2.3593,2.359,2.3578,2.3553,2.3549,2.357,2.3528,2.3521,2.3491,2.3479,2.3495,2.3492,2.3408,2.3407,2.3406,2.3408,0,0,0,0,0,0,2.3679,2.3671,2.3661,2.3636,2.3627,2.3587,2.3592,2.3588,2.3574,2.3574,2.3545,2.3541,2.3528,2.3495,2.3488,2.3475,2.349,2.3409,2.3408,2.3406,2.3409,2.3407,2.3405,0,0,0,0,0,2.3682,2.3662,2.3661,2.3654,2.3615,2.3587,2.3581,2.3569,2.3574,2.3562,2.3546,2.3542,2.3482,2.3492,2.3484,2.347,2.341,2.3408,2.3407,2.3409,2.3407,2.3405,0,0,0,0,0,0,2.3684,2.3659,2.3657,2.3629,2.361,2.3585,2.3571,2.3567,2.3545,2.3545,2.3529,2.3522,2.3493,2.3478,2.349,2.344,2.3446,2.3442,2.345,2.3448,2.3447,2.345,2.3488,0,0,0,0,0,2.3682,2.3663,2.3641,2.3618,2.3609,2.3592,2.3579,2.3572,2.3551,2.3542,2.3524,2.3502,2.3478,2.3462,2.3439,2.3407,2.34,2.3394,2.3392,2.3391,2.3388,2.3369,2.3365,2.34,2.34,2.34,0,0,2.3675,2.3659,2.3648,2.3618,2.3603,2.3582,2.3585,2.3563,2.3547,2.3538,2.3509,2.3494,2.3469,2.3437,2.3423,2.3424,2.3377,2.3389,2.3388,2.3385,2.3367,2.3363,2.336,2.3399,2.3399,2.34,0,0,2.3654,2.3641,2.362,2.3605,2.3583,2.3572,2.3567,2.3543,2.3534,2.3504,2.3497,2.3477,2.3436,2.3418,2.3404,2.3376,2.3371,2.3369,2.336,2.3342,2.3339,2.3336,2.3325,2.3322,2.3366,2.3366,2.3366,0,2.3648,2.3619,2.3609,2.3588,2.3574,2.3568,2.3546,2.3531,2.3502,2.3491,2.3495,2.3444,2.3427,2.339,2.3384,2.3373,2.3365,2.3372,2.3341,2.3338,2.3335,2.3324,2.332,2.3366,2.3366,2.3366,2.3366,0,2.3613,2.3592,2.3578,2.3552,2.3537,2.3515,2.3501,2.3486,2.348,2.3468,2.3437,2.3416,2.3389,2.338,2.3372,2.3342,2.3344,2.3344,2.3349,2.3332,2.3321,2.3317,2.3366,2.3366,2.3366,2.3366,0,0,2.3589,2.356,2.3555,2.3543,2.3518,2.3501,2.3479,2.3454,2.3441,2.3421,2.3401,2.3367,2.3367,2.3351,2.3342,2.3326,2.3304,2.3328,2.3327,2.3323,2.3268,2.3267,2.3263,2.3301,2.33,2.33,2.327,0,2.3564,2.3526,2.3517,2.3484,2.3464,2.3458,2.3438,2.342,2.3408,2.3388,2.3374,2.335,2.3353,2.3343,2.3327,2.331,2.3293,2.3312,2.3279,2.3278,2.3285,2.3257,2.3256,2.3229,2.3266,2.3265,2.3265,0,2.3529,2.3511,2.3476,2.3454,2.3446,2.3428,2.3405,2.3386,2.3365,2.3357,2.334,2.3332,2.3306,2.3314,2.3277,2.3291,2.3277,2.3267,2.3265,2.3261,2.3269,2.325,2.3221,2.3216,2.3258,2.3259,2.3259,0,2.3514,2.3481,2.3456,2.3446,2.342,2.3408,2.3396,2.3376,2.3361,2.334,2.333,2.3305,2.3291,2.3271,2.3257,2.3264,2.3221,2.3227,2.3212,2.3212,2.3201,2.3202,2.3167,2.3195,2.3195,2.3195,2.3195,0,2.3486,2.3465,2.3449,2.3433,2.3409,2.3398,2.3373,2.3361,2.3343,2.3323,2.3316,2.3297,2.328,2.3258,2.3246,2.3217,2.3211,2.3202,2.3199,2.3202,2.3203,2.3191,2.3192,2.3194,2.3194,2.3194,2.3195,0,2.3465,2.3454,2.3426,2.3405,2.3399,2.3381,2.3362,2.3346,2.3334,2.3309,2.3303,2.3284,2.3258,2.3242,2.3208,2.32,2.3168,2.3166,2.3175,2.3174,2.3158,2.316,2.3114,2.3107,2.3141,2.314,2.314,0,2.3447,2.3431,2.3408,2.3396,2.3385,2.3365,2.3351,2.3339,2.3324,2.3299,2.3285,2.326,2.3238,2.3197,2.3178,2.3153,2.3149,2.3135,2.3145,2.3148,2.3147,2.3148,2.3145,2.3133,2.3132,2.3132,2.3132,0,2.3416,2.3411,2.3393,2.3372,2.3356,2.3339,2.3321,2.331,2.3296,2.3279,2.3254,2.3238,2.3205,2.3178,2.3151,2.3137,2.3131,2.313,2.3124,2.3126,2.3132,2.3127,2.3169,2.313,2.313,2.313,2.313,2.3131,2.3395,2.338,2.3362,2.3341,2.3328,2.3311,2.3295,2.3283,2.3262,2.3236,2.323,2.3203,2.3181,2.3145,2.313,2.3107,2.3109,2.3101,2.3099,2.3097,2.3096,2.3138,2.3102,2.3102,2.3102,2.3102,2.3102,0,2.3362,2.3351,2.3332,2.3309,2.3292,2.3292,2.3272,2.3257,2.3235,2.3216,2.3196,2.3167,2.3141,2.3122,2.3095,2.3081,2.3077,2.3074,2.3074,2.3071,2.3097,2.3103,2.3077,2.3077,2.3077,2.3077,2.3077,2.3077,2.3343,2.3318,2.3312,2.3279,2.3267,2.3243,2.3232,2.3216,2.3201,2.317,2.315,2.3138,2.3118,2.3091,2.3067,2.3061,2.3051,2.3048,2.3042,2.3066,2.3069,2.3071,2.3077,2.3046,2.3046,2.3017,2.3017,2.3017]}]]